PROFILE

 METAR AND TAF INFORMATION
ADDS - METARS form results

(2350 UTC 09 December 2019)
http://aviationweather.gov/metar/data/
 
ENTC 092320Z 01009KT 4000 -SHSN VV009 M04/M08 Q0995 RMK WIND 2600FT 35024KT
TAF ENTC 0918/1018 21008KT 9999 FEW010TCU TEMPO 0918/1006 34015G25KT 1000 SHSNGS VV008 

 AIRPORT MAP

 RUNWAY INFORMATION
Runway 01 Runway length 7848 ft Runway width 148 ft
Runway elevation 25 ft Runway displaced threshold 0 ft Runway heading 13
Runway 19 Runway length 7848 ft Runway width 148 ft
Runway elevation 13 ft Runway displaced threshold 1286 ft Runway heading 193

 AIRPORT FREQUENCIES
Type APP Name APP Frequency 123.75 MHZ
Type ATIS Name ATIS Frequency 126.125 MHZ
Type TWR Name TWR Frequency 118.3 MHZ

 AIRPORT NEAR NAVIGATION AIDS
Type NDB Name Kobbe Frequency 283 KHZ
Type NDB Name Kvalsund Frequency 362 KHZ
Type NDB Name Lanes Frequency 268 KHZ
Type VOR-DME Name Tromso Frequency 113800 KHZ